Home   Weather   Adak   Past weeks
Flag for USA

Past Weather in Adak, Alaska, USA — Yesterday and Last 2 Weeks

Now
36 °F

Light rain. Overcast.


Feels Like: 23 °F
Forecast: 40 / 28 °F
Wind: 28 mph from South

Location: Adak

Current Time: Mar 23, 2019 at 6:06:44 am

Latest Report: Mar 23, 2019 at 5:29 am


Visibility: 8 mi

Pressure: 29.53 "Hg

Humidity: 87%

Dew Point: 32 °F

Location of AdakLocation

Past Weather in Adak — Graph

°F

Adak Temperature Yesterday

Maximum temperature yesterday: 35 °F (at 5:56 pm)
Minimum temperature yesterday: 26 °F (at 10:56 pm)
Average temperature yesterday: 31 °F

High & Low Weather Summary for the Past Weeks

 TemperatureHumidityPressure
High45 °F (Mar 8, 11:35 am)100% (Mar 11, 4:33 am)29.83 "Hg (Mar 11, 4:33 am)
Low20 °F (Mar 17, 8:56 am)56% (Mar 22, 5:56 pm)28.15 "Hg (Mar 8, 7:21 pm)
Average34 °F80%29.47 "Hg
* Reported Mar 8 3:21 am — Mar 23 4:56 am, Adak. Weather by CustomWeather, © 2019

Note: Actual official high and low records may vary slightly from our data, if they occured in-between our weather recording intervals... More about our weather records

Advertising

Adak Weather History for the Previous 24 Hours

Scroll right to see more
 ConditionsComfort  
Time TempWeatherWind HumidityBarometerVisibility
4:56 am
Sat, Mar 23
34 °FLight rain. Overcast.20 mph88%29.57 "Hg7 mi
4:10 am34 °FLight rain. Mostly cloudy.13 mph87%29.61 "Hg7 mi
3:56 am34 °FLight rain. Mostly cloudy.13 mph85%29.61 "Hg10 mi
2:56 am33 °FLight rain. Overcast.5 mph72%29.65 "Hg10 mi
1:56 am30 °FMostly cloudy.No wind79%29.67 "Hg10 mi
12:56 am29 °FOvercast.3 mph79%29.72 "Hg10 mi
11:56 pm
Fri, Mar 22
27 °FOvercast.3 mph81%29.73 "Hg10 mi
10:56 pm26 °FPassing clouds.3 mph81%29.75 "Hg10 mi
9:56 pm28 °FClear.5 mph75%29.74 "Hg10 mi
8:56 pm30 °FClear.8 mph72%29.75 "Hg10 mi
7:56 pm33 °FPartly sunny.15 mph66%29.74 "Hg10 mi
6:56 pm34 °FLight rain. Overcast.17 mph64%29.75 "Hg10 mi
5:56 pm35 °FPartly sunny.14 mph56%29.75 "Hg10 mi
4:56 pm34 °FMostly cloudy.14 mph67%29.76 "Hg10 mi
3:56 pm33 °FMostly cloudy.9 mph61%29.76 "Hg10 mi
2:56 pm33 °FLight rain. Overcast.18 mph63%29.77 "Hg10 mi
1:56 pm34 °FOvercast.12 mph61%29.76 "Hg10 mi
1:04 pm30 °FLight snow. Broken clouds.15 mph69%29.76 "Hg8 mi
11:56 am31 °FPartly sunny.15 mph61%29.75 "Hg10 mi
11:36 am30 °FLight snow. Mostly cloudy.16 mph64%29.75 "Hg6 mi
10:56 am31 °FPartly sunny.15 mph67%29.75 "Hg10 mi
9:56 am30 °FLight snow. Mostly cloudy.13 mph69%29.75 "Hg4 mi
9:30 am28 °FLight snow. Cloudy.12 mph74%29.75 "Hg2 mi
8:56 am31 °FLight snow. Mostly cloudy.13 mph64%29.75 "Hg9 mi
8:23 am30 °FLight snow. Mostly cloudy.17 mph75%29.74 "Hg4 mi
7:56 am30 °FLight snow. Mostly cloudy.15 mph69%29.73 "Hg10 mi
6:56 am31 °FMostly cloudy.13 mph64%29.73 "Hg10 mi
Weather by CustomWeather, © 2019

See weather overview